This is the latest recevied weather packets stored in our database for station/object KF0WJA. If no packets are shown the sender has not sent any weather packets the latest 10 day(s).
| Time | Temp. | Humidity | Pressure | Rain* | Wind** | Luminosity | Snow |
|---|---|---|---|---|---|---|---|
| 1787617148 | 30° C | 63% | 1015.2 hPa | 0 mm | - | 58 W/m² | - |
| 1787616843 | 30° C | 63% | 1014.9 hPa | 0 mm | - | 68 W/m² | - |
| 1787616542 | 30° C | 62% | 1015.2 hPa | 0 mm | - | 80 W/m² | - |
| 1787616241 | 30.56° C | 62% | 1015 hPa | 0 mm | - | 96 W/m² | - |
| 1787615940 | 30.56° C | 61% | 1015.2 hPa | 0 mm | - | 111 W/m² | - |
| 1787615635 | 30.56° C | 61% | 1015.1 hPa | 0 mm | - | 127 W/m² | - |
| 1787615330 | 30.56° C | 60% | 1015.5 hPa | 0 mm | - | 144 W/m² | - |
| 1787615026 | 30.56° C | 61% | 1015.3 hPa | 0 mm | - | 161 W/m² | - |
| 1787614722 | 30.56° C | 61% | 1015.2 hPa | 0 mm | - | 168 W/m² | - |
| 1787614419 | 30.56° C | 61% | 1015.3 hPa | 0 mm | - | 182 W/m² | - |
| 1787614116 | 30.56° C | 61% | 1015.2 hPa | 0 mm | - | 203 W/m² | - |
| 1787613811 | 30.56° C | 61% | 1015.3 hPa | 0 mm | - | 221 W/m² | - |
| 1787613507 | 31.11° C | 61% | 1015.3 hPa | 0 mm | - | 229 W/m² | - |
| 1787613202 | 31.11° C | 60% | 1015.2 hPa | 0 mm | - | 251 W/m² | - |
| 1787612898 | 31.11° C | 60% | 1015.2 hPa | 0 mm | - | 269 W/m² | - |
| 1787612594 | 31.11° C | 60% | 1015.1 hPa | 0 mm | - | 286 W/m² | - |
| 1787612290 | 31.11° C | 60% | 1015.1 hPa | 0 mm | - | 301 W/m² | - |
| 1787611987 | 31.67° C | 60% | 1014.9 hPa | 0 mm | - | 310 W/m² | - |
| 1787611683 | 31.67° C | 60% | 1015.2 hPa | 0 mm | - | 327 W/m² | - |
| 1787611378 | 31.11° C | 59% | 1015.1 hPa | 0 mm | - | 348 W/m² | - |
| 1787611079 | 31.11° C | 60% | 1015.1 hPa | 0 mm | - | 368 W/m² | - |
| 1787610775 | 31.11° C | 60% | 1014.8 hPa | 0 mm | - | 370 W/m² | - |
| 1787610470 | 31.67° C | 58% | 1015 hPa | 0 mm | - | 371 W/m² | - |
| 1787610169 | 31.11° C | 59% | 1014.7 hPa | 0 mm | - | 406 W/m² | - |
| 1787609869 | 31.67° C | 58% | 1014.7 hPa | 0 mm | - | 418 W/m² | - |
* Rain latest hour (hover to see other rain measurements)
** Current wind speed in m/s (hover to see current wind gust speed)